Regional Weather Roundup
Issued by NWS Tiyan, Guam

Home | Current Version | Previous Version | Text Only | Print | Product List | Glossary On
Versions: 1 2 3 4 5 6 7 8 9 10 11 12 13 14 15 16 17 18 19 20 21 22 23 24 25 26 27 28 29 30 31 32 33 34 35 36 37 38 39 40 41 42 43 44 45 46 47 48 49 50
000
ASGM40 PGUM 300812
RWRGUM
WEATHER ROUNDUP FOR THE MARIANAS
NATIONAL WEATHER SERVICE TIYAN GU
600 PM CHST WED JUL 30 2014

GUZ001>004-300900-
MARIANA ISLANDS-

CITY           SKY/WX    TMP DP  RH WIND       PRES   REMARKS
GUAM AIRPORT   LGT RAIN  77  75  94 W29G40    29.66R
ANDERSEN AFB   LGT RAIN  75  73  94 SW18G26   29.67R
ROTA AIRPORT   LGT RAIN  77  75  94 S13G20    29.70R
TINIAN AP      PTSUNNY   81  79  94 E12       29.73S
SAIPAN AP      PTSUNNY   82  75  78 SE15      29.75S

$$



USA.gov is the U.S. government's official web portal to all federal, state and local government web resources and services.